927  
ASUS42 KTAE 232316  
RWRTAE  
RWRTAE  
NORTH FLORIDA/SOUTH ALABAMA/SOUTHWEST GEORGIA WEATHER ROUNDUP  
NATIONAL WEATHER SERVICE TALLAHASSEE FLORIDA  
700 PM EDT SAT OCT 23 2021  
 
NOTE: "FAIR" INDICATES FEW OR NO CLOUDS BELOW 12,000 FEET WITH NO  
SIGNIFICANT WEATHER AND/OR S TO VISIBILITY
.  
 
!FLZ017-115-028-034-025-240000   
..NORTH FLORIDA
 
 
 
CITY SKY/WX TMP DP RH WIND PRES REMARKS
 
TALL INTL ARPT MOCLDY 77 57 50 CALM 30.01S  
FSU LOVE BLDG N/A 77 55 47 CALM N/A  
APALACHICOLA PTCLDY 72 68 87 CALM 29.99F  
PERRY NOT AVBL  
CROSS CITY PTCLDY 75 64 69 NW5 30.00S  
JACKSONVILLE PTCLDY 71 61 70 E6 29.99R  

 
 
!FLZ112-006-005-002-011-240000   
..FLORIDA PANHANDLE
 
 
 
CITY SKY/WX TMP DP RH WIND PRES REMARKS
 
MARIANNA PTCLDY 75 54 47 NE3 30.00S  
BONIFAY FAIR 70 63 78 CALM 30.02S  
PANAMA CITY NW FAIR 74 60 61 CALM 30.00R  
TYNDALL AFB PTCLDY 75 62 62 W5 29.99S  
TYND DRONE APT FAIR 76 64 66 NW3 29.98S  
DE FUNIAK SPR FAIR 74 55 51 CALM 30.02S  
EGLIN AFB PTCLDY 75 62 64 S3 29.99S  
DESTIN PTCLDY 78 59 51 CALM 30.00S  
HURLBURT MOCLDY 75 59 56 CALM 29.99F  
CRESTVIEW NOT AVBL  
PENSACOLA PTCLDY 75 61 61 S3 30.00S  

 
 
!ALZ063-066-240000   
..SOUTH ALABAMA
 
 
 
CITY SKY/WX TMP DP RH WIND PRES REMARKS
 
DOTHAN CLEAR 72 54 53 N3 30.06R  
OZARK CAIRNS PTCLDY 72 56 57 CALM 30.01S  
FT RUCKER HELI PTCLDY 67 58 73 CALM 30.02S  
RUCKER HELI 3 FAIR 71 55 57 CALM 30.01S  
RUCKER HELI 2 FAIR 70 59 69 CALM 30.01R  
FLORALA APT NOT AVBL  
ANDALUSIA PTCLDY 74 55 51 CALM 30.02R  
TROY CLEAR 68 56 65 CALM 30.03F  
EUFALA FAIR 65 59 81 CALM 30.04R  
MOBILE MOCLDY 73 58 59 SE6 30.01S  

 
 
!GAZ120>161-240000   
..SOUTHWEST AND SOUTH CENTRAL GEORGIA
 
 
 
CITY SKY/WX TMP DP RH WIND PRES REMARKS
 
THOMASVILLE FAIR 66 57 72 CALM 30.04R  
BAINBRIDGE NOT AVBL  
MOODY AFB PTCLDY 68 56 65 CALM 30.01S  
VALDOSTA PTCLDY 67 58 72 CALM 30.02R  
MOULTRIE CLEAR 70 54 56 CALM 30.03S  
BLAKELY CLEAR 64 54 68 CALM 30.04R  
ALBANY CLEAR 72 54 53 CALM 30.03R  
TIFTON FAIR 65 54 67 CALM 30.03R  
FITZGERALD FAIR 66 55 68 CALM 30.04R  
CORDELE FAIR 65 55 70 CALM 30.04S  
AMERICUS N/A 70 54 56 CALM 30.05R  
HOMERVILLE FAIR 69 58 69 CALM 30.02S  

 
 
!GMZ750-755-770-775-240000   
..COASTAL AND BUOY OBS
 
 
 
STATION/POSITION TIME TEMP WIND PRES VSBY WAVE
 
AIR SEA DIR/SP/G HT/PER  
(UTC) (F) (DEG/KT/KT) (MB) (MI) (FT/S)  
KEATON BEACH 2300 77 320/ 3/ 5 1016.1R  
CEDAR KEY 2300 77 330/ 4/ 7 1015.9R  
C TOWER 2300 77 90/ 5/ 7 1016.2F  
APALACHICOLA BUO 2250 81 50/ 12/ 14 1014.6R 2/ 5  
PANAMA CITY BUOY 2250 79 70/ 10/ 12 1015.9R 2/ 5  
MOBILE BUOY 2250 78 80 90/ 12/ 14 1015.3F 2/ 4  
ORANGE BCH AL BU 2250 77 79 90/ 4/ 6 N/A 2/ 4  

 
 
 
CLICK HERE TO GO TO PREVIOUS BULLETINS.

The Nexlab FL Page
The Nexlab GA Page
The Nexlab AL Page Main Text Page